Main page
METAR-TAF:

METAR-TAF

Airports :

Hemphill County Airport

Canadian, Texas, United States

latitude: 35-54N, longitude: 100-24W, elevation: 2394 ft

Current weather observation

The report was made 23 minutes ago, at 04:35 UTC
Wind 6 mph from the East
Temperature 39°F
Humidity 93%
Pressure 30.10 in. Hg
Visibility: 7 miles
Clear sky

METAR: KHHF 160435Z AUTO 09005KT 7SM CLR 04/03 A3010 RMK AO2 T00390031

Time: 22:58 (04:58 UTC)


TAF: missing

Weather observations and forecasts of more than 4000 airports (METAR and TAF reports).

The available stations are represented by yellow and red dots on the map.

Hover mouse over dot to see the name of the station.

Then click to see weather observations and forecasts.

To change the map : click on the green buttons with a black cross to zoom in, on the green button with a dash to zoom out, or on the green arrows for adjacent maps.


METAR-TAF: